Copper Mountain, CO

2:22 AM MST on December 15, 2017 (GMT -0700)
Copper Mountain

Weather History for KCCU - October, 2011

Change the Weather History Date:

Thursday, October 20, 2011

  Actual Average Record
Temperature  
Mean Temperature 36 °F -  
Max Temperature 44 °F - 55 °F (2003)
Min Temperature 28 °F - 19 °F (2006)
Degree Days  
Heating Degree Days 29    
Month to date heating degree days  
Cooling Degree Days 0    
Month to date cooling degree days  
Moisture  
Dew Point 15 °F    
Average Humidity 44    
Maximum Humidity 64    
Minimum Humidity 23    
Precipitation  
Precipitation 0.00 in - 0.08 in (2016)
Sea Level Pressure  
Sea Level Pressure 30.35 in    
Wind  
Wind Speed 18 mph (West)    
Max Wind Speed 26 mph    
Max Gust Speed 36 mph    
Visibility 7 miles    
Events Rain , Snow    
T = Trace of Precipitation, MM = Missing Value Source: NWS Daily Summary

Daily Weather History Graph

Daily Weather History Graph

Search for Another Location

Airport or City:

Trip Planner

Search our weather history database for the weather conditions in past years. The results will help you decide how hot, cold, wet, or windy it might be!

Date:

Astronomy

Oct. 20, 2011 Rise Set
Actual Time 7:19 AM MDT 6:18 PM MDT
Civil Twilight 6:52 AM MDT 6:45 PM MDT
Nautical Twilight 6:20 AM MDT 7:17 PM MDT
Astronomical Twilight 5:49 AM MDT 7:48 PM MDT
Moon 12:09 AM MDT (10/20) 2:27 PM MDT (10/20)
Length of Visible Light 11h 53m
Length of Day
10h 59m
Last Quarter, 43% of the Moon is Illuminated
Oct 20
Last Quarter
Oct 26
New
Nov 2
First Quarter
Nov 10
Full
Nov 18
Last Quarter

Hourly Weather History & Observations

Time (MDT) Temp. Windchill Dew Point Humidity Pressure Visibility Wind Dir Wind Speed Gust Speed Precip Events Conditions
12:07 AM 33.8 °F 22.8 °F 12.2 °F 41% 30.28 in 0.5 mi West 18.4 mph 24.2 mph N/A Snow Light Snow
12:27 AM 33.8 °F 20.8 °F 12.2 °F 41% 30.28 in 0.5 mi West 26.5 mph 32.2 mph N/A Snow Light Snow
12:47 AM 35.6 °F 23.4 °F 10.4 °F 35% 30.27 in 3.0 mi West 25.3 mph 32.2 mph N/A Snow Light Snow
1:27 AM 33.8 °F 21.3 °F 10.4 °F 38% 30.28 in 4.0 mi West 24.2 mph 31.1 mph N/A   Clear
1:47 AM 33.8 °F 20.8 °F 10.4 °F 38% 30.27 in 1.2 mi West 26.5 mph 35.7 mph N/A Snow Light Snow
2:07 AM 33.8 °F 22.8 °F 10.4 °F 38% 30.28 in 2.0 mi West 18.4 mph 34.5 mph N/A   Haze
2:27 AM 32.0 °F 27.5 °F 14.0 °F 48% 30.28 in 7.0 mi WSW 4.6 mph - N/A   Clear
2:47 AM 32.0 °F 23.6 °F 14.0 °F 48% 30.28 in 4.0 mi West 10.4 mph - N/A   Haze
3:07 AM 30.2 °F 19.8 °F 14.0 °F 51% 30.27 in 0.8 mi West 13.8 mph 19.6 mph N/A Snow Light Snow
3:27 AM 32.0 °F 20.1 °F 12.2 °F 44% 30.26 in 1.0 mi West 19.6 mph - N/A Snow Light Snow
4:07 AM 32.0 °F 19.5 °F 17.6 °F 55% 30.26 in 0.2 mi West 21.9 mph 29.9 mph N/A Snow Snow
4:27 AM 32.0 °F 20.8 °F 14.0 °F 48% 30.27 in 1.5 mi West 17.3 mph 24.2 mph N/A Snow Light Snow
4:47 AM 32.0 °F 20.8 °F 14.0 °F 48% 30.27 in 2.0 mi West 17.3 mph - N/A   Haze
5:07 AM 32.0 °F 20.5 °F 14.0 °F 48% 30.28 in 0.5 mi West 18.4 mph 21.9 mph N/A Snow Light Snow
5:27 AM 32.0 °F 20.1 °F 14.0 °F 48% 30.28 in - West 19.6 mph - N/A   Clear
5:47 AM 30.2 °F 17.8 °F 12.2 °F 47% 30.29 in - West 19.6 mph 25.3 mph N/A   Clear
6:07 AM 30.2 °F 20.8 °F 14.0 °F 51% 30.30 in 10.0 mi West 11.5 mph 19.6 mph N/A   Clear
6:27 AM 30.2 °F 19.8 °F 15.8 °F 55% 30.31 in 0.8 mi West 13.8 mph - N/A Snow Light Snow
7:07 AM 28.4 °F 17.0 °F 14.0 °F 55% 30.31 in - West 15.0 mph - N/A   Clear
7:27 AM 30.2 °F 18.5 °F 14.0 °F 51% 30.32 in - West 17.3 mph - N/A   Clear
7:47 AM 30.2 °F 20.2 °F 14.0 °F 51% 30.33 in - West 12.7 mph - N/A   Clear
8:07 AM 30.2 °F 19.8 °F 14.0 °F 51% 30.33 in 10.0 mi West 13.8 mph - N/A   Clear
8:27 AM 30.2 °F 21.3 °F 17.6 °F 60% 30.34 in 2.5 mi West 10.4 mph - N/A   Haze
8:47 AM 32.0 °F 22.5 °F 21.2 °F 64% 30.36 in 0.5 mi West 12.7 mph - N/A Snow Light Snow
9:07 AM 33.8 °F 27.0 °F 19.4 °F 56% 30.36 in 3.0 mi West 8.1 mph - N/A   Haze
9:27 AM 33.8 °F 24.8 °F 19.4 °F 56% 30.36 in 1.8 mi West 12.7 mph - N/A   Haze
9:47 AM 33.8 °F 24.8 °F 19.4 °F 56% 30.36 in 1.2 mi West 12.7 mph - N/A Rain Light Rain
10:07 AM 33.8 °F 23.5 °F 17.6 °F 52% 30.36 in 1.8 mi West 16.1 mph 19.6 mph N/A   Haze
10:27 AM 35.6 °F 24.2 °F 17.6 °F 48% 30.36 in 4.0 mi West 21.9 mph 27.6 mph N/A   Haze
10:47 AM 35.6 °F 25.2 °F 19.4 °F 52% 30.36 in 10.0 mi West 18.4 mph 24.2 mph N/A   Clear
11:07 AM 37.4 °F 27.5 °F 19.4 °F 48% 30.38 in 10.0 mi West 18.4 mph - N/A   Clear
11:27 AM 37.4 °F 28.5 °F 19.4 °F 48% 30.38 in 10.0 mi West 15.0 mph 24.2 mph N/A   Clear
11:47 AM 37.4 °F 26.9 °F 19.4 °F 48% 30.38 in 10.0 mi West 20.7 mph - N/A   Clear
12:07 PM 37.4 °F 27.2 °F 19.4 °F 48% 30.38 in 10.0 mi West 19.6 mph 25.3 mph N/A   Clear
12:27 PM 37.4 °F 28.5 °F 17.6 °F 45% 30.38 in 10.0 mi West 15.0 mph 28.8 mph N/A   Clear
12:47 PM 41.0 °F 32.8 °F 19.4 °F 42% 30.38 in 10.0 mi West 16.1 mph 25.3 mph N/A   Clear
1:07 PM 41.0 °F 33.1 °F 17.6 °F 39% 30.38 in 10.0 mi West 15.0 mph 23.0 mph N/A   Scattered Clouds
1:27 PM 41.0 °F 31.4 °F 17.6 °F 39% 30.38 in 10.0 mi West 21.9 mph 28.8 mph N/A   Clear
1:47 PM 41.0 °F 32.2 °F 15.8 °F 36% 30.38 in 10.0 mi West 18.4 mph 29.9 mph N/A   Clear
2:07 PM 41.0 °F 33.5 °F 14.0 °F 33% 30.38 in 10.0 mi West 13.8 mph 19.6 mph N/A   Clear
2:27 PM 42.8 °F 35.8 °F 14.0 °F 31% 30.37 in 10.0 mi West 13.8 mph 20.7 mph N/A   Clear
2:47 PM 44.6 °F 37.4 °F 14.0 °F 29% 30.38 in 10.0 mi West 16.1 mph 23.0 mph N/A   Clear
3:07 PM 42.8 °F 33.5 °F 10.4 °F 27% 30.38 in 10.0 mi West 23.0 mph 28.8 mph N/A   Clear
3:27 PM 42.8 °F 34.0 °F 6.8 °F 23% 30.38 in 10.0 mi West 20.7 mph 31.1 mph N/A   Clear
3:47 PM 44.6 °F 36.6 °F 12.2 °F 27% 30.38 in 10.0 mi West 19.6 mph 25.3 mph N/A   Clear
4:07 PM 44.6 °F 36.9 °F 12.2 °F 27% 30.38 in 10.0 mi West 18.4 mph 27.6 mph N/A   Clear
4:27 PM 44.6 °F 36.9 °F 14.0 °F 29% 30.39 in 10.0 mi West 18.4 mph 27.6 mph N/A   Clear
4:47 PM 44.6 °F 36.9 °F 14.0 °F 29% 30.40 in 10.0 mi West 18.4 mph 25.3 mph N/A   Clear
5:07 PM 44.6 °F 38.1 °F 15.8 °F 31% 30.40 in 10.0 mi West 13.8 mph - N/A   Clear
5:27 PM 42.8 °F 36.2 °F 14.0 °F 31% 30.40 in 10.0 mi WSW 12.7 mph - N/A   Clear
5:47 PM 41.0 °F 31.9 °F 17.6 °F 39% 30.41 in 10.0 mi West 19.6 mph - N/A   Clear
6:07 PM 37.4 °F 28.2 °F 17.6 °F 45% 30.41 in 10.0 mi West 16.1 mph 24.2 mph N/A   Clear
6:27 PM 37.4 °F 29.3 °F 17.6 °F 45% 30.41 in 10.0 mi West 12.7 mph 21.9 mph N/A   Clear
6:47 PM 37.4 °F 27.8 °F 17.6 °F 45% 30.42 in 10.0 mi West 17.3 mph 24.2 mph N/A   Clear
7:07 PM 37.4 °F 26.9 °F 15.8 °F 41% 30.42 in 10.0 mi West 20.7 mph 26.5 mph N/A   Clear
7:27 PM 37.4 °F 28.5 °F 15.8 °F 41% 30.43 in 10.0 mi West 15.0 mph 26.5 mph N/A   Clear
7:47 PM 35.6 °F 25.9 °F 14.0 °F 41% 30.43 in 10.0 mi West 16.1 mph 23.0 mph N/A   Clear
8:07 PM 35.6 °F 27.1 °F 15.8 °F 44% 30.44 in 10.0 mi WSW 12.7 mph 26.5 mph N/A   Clear
8:27 PM 35.6 °F 26.2 °F 17.6 °F 48% 30.44 in 10.0 mi WSW 15.0 mph 25.3 mph N/A   Clear
8:47 PM 35.6 °F 25.5 °F 17.6 °F 48% 30.44 in 10.0 mi West 17.3 mph 26.5 mph N/A   Clear
9:07 PM 35.6 °F 25.9 °F 17.6 °F 48% 30.45 in 10.0 mi West 16.1 mph 21.9 mph N/A   Clear
9:27 PM 33.8 °F 24.8 °F 17.6 °F 52% 30.45 in 10.0 mi WSW 12.7 mph 24.2 mph N/A   Clear
9:47 PM 35.6 °F 26.6 °F 17.6 °F 48% 30.46 in 10.0 mi West 13.8 mph 20.7 mph N/A   Clear
10:07 PM 33.8 °F 25.8 °F 17.6 °F 52% 30.46 in 10.0 mi WSW 10.4 mph 20.7 mph N/A   Clear
10:27 PM 33.8 °F 25.3 °F 17.6 °F 52% 30.46 in 10.0 mi WSW 11.5 mph 18.4 mph N/A   Clear
10:47 PM 35.6 °F 28.0 °F 17.6 °F 48% 30.46 in 10.0 mi WSW 10.4 mph 19.6 mph N/A   Clear
11:07 PM 33.8 °F 24.3 °F 17.6 °F 52% 30.46 in 10.0 mi WSW 13.8 mph 20.7 mph N/A   Clear
11:27 PM 33.8 °F 25.8 °F 17.6 °F 52% 30.46 in 10.0 mi West 10.4 mph 19.6 mph N/A   Clear
11:47 PM 33.8 °F 27.7 °F 17.6 °F 52% 30.46 in 10.0 mi WSW 6.9 mph - N/A   Clear